Datum;"Wasserstand in cm";"Stationsnummer: 5935302";"Stationsname: Helle";"Gew?sser: K�mmernitz";"Fehlwerte: -777"
"04.04.2024 00:00";42
"04.04.2024 00:15";42
"04.04.2024 00:30";42
"04.04.2024 00:45";42
"04.04.2024 01:00";42
"04.04.2024 01:15";42
"04.04.2024 01:30";42
"04.04.2024 01:45";42
"04.04.2024 02:00";42
"04.04.2024 02:15";42
"04.04.2024 02:30";43
"04.04.2024 02:45";43
"04.04.2024 03:00";43
"04.04.2024 03:15";43
"04.04.2024 03:30";43
"04.04.2024 03:45";43
"04.04.2024 04:00";43
"04.04.2024 04:15";43
"04.04.2024 04:30";43
"04.04.2024 04:45";43
"04.04.2024 05:00";43
"04.04.2024 05:15";43
"04.04.2024 05:30";43
"04.04.2024 05:45";43
"04.04.2024 06:00";43
"04.04.2024 06:15";43
"04.04.2024 06:30";43
"04.04.2024 06:45";43
"04.04.2024 07:00";43
"04.04.2024 07:15";43
"04.04.2024 07:30";43
"04.04.2024 07:45";43
"04.04.2024 08:00";43
"04.04.2024 08:15";43
"04.04.2024 08:30";43
"04.04.2024 08:45";43
"04.04.2024 09:00";43
"04.04.2024 09:15";43
"04.04.2024 09:30";43
"04.04.2024 09:45";43
"04.04.2024 10:00";43
"04.04.2024 10:15";43
"04.04.2024 10:30";43
"04.04.2024 10:45";43
"04.04.2024 11:00";43
"04.04.2024 11:15";43
"04.04.2024 11:30";43
"04.04.2024 11:45";43
"04.04.2024 12:00";43
"04.04.2024 12:15";43
"04.04.2024 12:30";43
"04.04.2024 12:45";43
"04.04.2024 13:00";43
"04.04.2024 13:15";43
"04.04.2024 13:30";44
"04.04.2024 13:45";44
"04.04.2024 14:00";44
"04.04.2024 14:15";44
"04.04.2024 14:30";44
"04.04.2024 14:45";44
"04.04.2024 15:00";44
"04.04.2024 15:15";44
"04.04.2024 15:30";44
"04.04.2024 15:45";44
"04.04.2024 16:00";44
"04.04.2024 16:15";44
"04.04.2024 16:30";44
"04.04.2024 16:45";44
"04.04.2024 17:00";45
"04.04.2024 17:15";45
"04.04.2024 17:30";45
"04.04.2024 17:45";45
"04.04.2024 18:00";45
"04.04.2024 18:15";45
"04.04.2024 18:30";45
"04.04.2024 18:45";45
"04.04.2024 19:00";45
"04.04.2024 19:15";45
"04.04.2024 19:30";45
"04.04.2024 19:45";45
"04.04.2024 20:00";45
"04.04.2024 20:15";45
"04.04.2024 20:30";45
"04.04.2024 20:45";45
"04.04.2024 21:00";45
"04.04.2024 21:15";46
"04.04.2024 21:30";46
"04.04.2024 21:45";46
"04.04.2024 22:00";46
"04.04.2024 22:15";46
"04.04.2024 22:30";46
"04.04.2024 22:45";46
"04.04.2024 23:00";46
"04.04.2024 23:15";46
"04.04.2024 23:30";46
"04.04.2024 23:45";46
"05.04.2024 00:00";46
"05.04.2024 00:15";46
"05.04.2024 00:30";46
"05.04.2024 00:45";46
"05.04.2024 01:00";46
"05.04.2024 01:15";46
"05.04.2024 01:30";46
"05.04.2024 01:45";46
"05.04.2024 02:00";47
"05.04.2024 02:15";47
"05.04.2024 02:30";47
"05.04.2024 02:45";47
"05.04.2024 03:00";47
"05.04.2024 03:15";47
"05.04.2024 03:30";47
"05.04.2024 03:45";47
"05.04.2024 04:00";47
"05.04.2024 04:15";47
"05.04.2024 04:30";47
"05.04.2024 04:45";47
"05.04.2024 05:00";47
"05.04.2024 05:15";47
"05.04.2024 05:30";47
"05.04.2024 05:45";47
"05.04.2024 06:00";47
"05.04.2024 06:15";47
"05.04.2024 06:30";47
"05.04.2024 06:45";47
"05.04.2024 07:00";47
"05.04.2024 07:15";47
"05.04.2024 07:30";47
"05.04.2024 07:45";47
"05.04.2024 08:00";47
"05.04.2024 08:15";47
"05.04.2024 08:30";47
"05.04.2024 08:45";47
"05.04.2024 09:00";47
"05.04.2024 09:15";47
"05.04.2024 09:30";47
"05.04.2024 09:45";47
"05.04.2024 10:00";47
"05.04.2024 10:15";47
"05.04.2024 10:30";47
"05.04.2024 10:45";47
"05.04.2024 11:00";47
"05.04.2024 11:15";47
"05.04.2024 11:30";47
"05.04.2024 11:45";47
"05.04.2024 12:00";47
"05.04.2024 12:15";47
"05.04.2024 12:30";47
"05.04.2024 12:45";47
"05.04.2024 13:00";47
"05.04.2024 13:15";47
"05.04.2024 13:30";47
"05.04.2024 13:45";47
"05.04.2024 14:00";47
"05.04.2024 14:15";47
"05.04.2024 14:30";47
"05.04.2024 14:45";47
"05.04.2024 15:00";47
"05.04.2024 15:15";47
"05.04.2024 15:30";47
"05.04.2024 15:45";47
"05.04.2024 16:00";47
"05.04.2024 16:15";47
"05.04.2024 16:30";47
"05.04.2024 16:45";47
"05.04.2024 17:00";47
"05.04.2024 17:15";47
"05.04.2024 17:30";47
"05.04.2024 17:45";47
"05.04.2024 18:00";47
"05.04.2024 18:15";47
"05.04.2024 18:30";47
"05.04.2024 18:45";47
"05.04.2024 19:00";47
"05.04.2024 19:15";47
"05.04.2024 19:30";47
"05.04.2024 19:45";47
"05.04.2024 20:00";47
"05.04.2024 20:15";47
"05.04.2024 20:30";47
"05.04.2024 20:45";47
"05.04.2024 21:00";48
"05.04.2024 21:15";48
"05.04.2024 21:30";48
"05.04.2024 21:45";48
"05.04.2024 22:00";48
"05.04.2024 22:15";48
"05.04.2024 22:30";48
"05.04.2024 22:45";49
"05.04.2024 23:00";49
"05.04.2024 23:15";49
"05.04.2024 23:30";49
"05.04.2024 23:45";49
"06.04.2024 00:00";49
"06.04.2024 00:15";49
"06.04.2024 00:30";49
"06.04.2024 00:45";49
"06.04.2024 01:00";49
"06.04.2024 01:15";49
"06.04.2024 01:30";49
"06.04.2024 01:45";49
"06.04.2024 02:00";49
"06.04.2024 02:15";49
"06.04.2024 02:30";49
"06.04.2024 02:45";49
"06.04.2024 03:00";49
"06.04.2024 03:15";49
"06.04.2024 03:30";49
"06.04.2024 03:45";49
"06.04.2024 04:00";49
"06.04.2024 04:15";49
"06.04.2024 04:30";49
"06.04.2024 04:45";49
"06.04.2024 05:00";49
"06.04.2024 05:15";49
"06.04.2024 05:30";49
"06.04.2024 05:45";48
"06.04.2024 06:00";48
"06.04.2024 06:15";48
"06.04.2024 06:30";48
"06.04.2024 06:45";48
"06.04.2024 07:00";48
"06.04.2024 07:15";48
"06.04.2024 07:30";48
"06.04.2024 07:45";48
"06.04.2024 08:00";48
"06.04.2024 08:15";48
"06.04.2024 08:30";48
"06.04.2024 08:45";48
"06.04.2024 09:00";48
"06.04.2024 09:15";48
"06.04.2024 09:30";48
"06.04.2024 09:45";48
"06.04.2024 10:00";48
"06.04.2024 10:15";48
"06.04.2024 10:30";48
"06.04.2024 10:45";48
"06.04.2024 11:00";48
"06.04.2024 11:15";48
"06.04.2024 11:30";48
"06.04.2024 11:45";48
"06.04.2024 12:00";48
"06.04.2024 12:15";48
"06.04.2024 12:30";48
"06.04.2024 12:45";48
"06.04.2024 13:00";48
"06.04.2024 13:15";48
"06.04.2024 13:30";48
"06.04.2024 13:45";48
"06.04.2024 14:00";48
"06.04.2024 14:15";48
"06.04.2024 14:30";48
"06.04.2024 14:45";48
"06.04.2024 15:00";48
"06.04.2024 15:15";48
"06.04.2024 15:30";48
"06.04.2024 15:45";48
"06.04.2024 16:00";48
"06.04.2024 16:15";48
"06.04.2024 16:30";48
"06.04.2024 16:45";48
"06.04.2024 17:00";48
"06.04.2024 17:15";48
"06.04.2024 17:30";48
"06.04.2024 17:45";48
"06.04.2024 18:00";48
"06.04.2024 18:15";48
"06.04.2024 18:30";48
"06.04.2024 18:45";48
"06.04.2024 19:00";48
"06.04.2024 19:15";48
"06.04.2024 19:30";48
"06.04.2024 19:45";48
"06.04.2024 20:00";48
"06.04.2024 20:15";47
"06.04.2024 20:30";47
"06.04.2024 20:45";47
"06.04.2024 21:00";47
"06.04.2024 21:15";47
"06.04.2024 21:30";47
"06.04.2024 21:45";47
"06.04.2024 22:00";47
"06.04.2024 22:15";47
"06.04.2024 22:30";47
"06.04.2024 22:45";47
"06.04.2024 23:00";47
"06.04.2024 23:15";47
"06.04.2024 23:30";47
"06.04.2024 23:45";47
"07.04.2024 00:00";47
"07.04.2024 00:15";47
"07.04.2024 00:30";47
"07.04.2024 00:45";47
"07.04.2024 01:00";47
"07.04.2024 01:15";47
"07.04.2024 01:30";47
"07.04.2024 01:45";47
"07.04.2024 02:00";47
"07.04.2024 02:15";47
"07.04.2024 02:30";47
"07.04.2024 02:45";47
"07.04.2024 03:00";47
"07.04.2024 03:15";47
"07.04.2024 03:30";47
"07.04.2024 03:45";47
"07.04.2024 04:00";47
"07.04.2024 04:15";47
"07.04.2024 04:30";47
"07.04.2024 04:45";47
"07.04.2024 05:00";47
"07.04.2024 05:15";47
"07.04.2024 05:30";47
"07.04.2024 05:45";47
"07.04.2024 06:00";47
"07.04.2024 06:15";47
"07.04.2024 06:30";47
"07.04.2024 06:45";47
"07.04.2024 07:00";47
"07.04.2024 07:15";47
"07.04.2024 07:30";47
"07.04.2024 07:45";47
"07.04.2024 08:00";47
"07.04.2024 08:15";47
"07.04.2024 08:30";47
"07.04.2024 08:45";47
"07.04.2024 09:00";47
"07.04.2024 09:15";47
"07.04.2024 09:30";47
"07.04.2024 09:45";47
"07.04.2024 10:00";47
"07.04.2024 10:15";47
"07.04.2024 10:30";46
"07.04.2024 10:45";46
"07.04.2024 11:00";46
"07.04.2024 11:15";46
"07.04.2024 11:30";46
"07.04.2024 11:45";46
"07.04.2024 12:00";46
"07.04.2024 12:15";46
"07.04.2024 12:30";46
"07.04.2024 12:45";46
"07.04.2024 13:00";46
"07.04.2024 13:15";46
"07.04.2024 13:30";46
"07.04.2024 13:45";46
"07.04.2024 14:00";46
"07.04.2024 14:15";46
"07.04.2024 14:30";46
"07.04.2024 14:45";46
"07.04.2024 15:00";46
"07.04.2024 15:15";46
"07.04.2024 15:30";46
"07.04.2024 15:45";46
"07.04.2024 16:00";46
"07.04.2024 16:15";46
"07.04.2024 16:30";46
"07.04.2024 16:45";46
"07.04.2024 17:00";46
"07.04.2024 17:15";46
"07.04.2024 17:30";46
"07.04.2024 17:45";46
"07.04.2024 18:00";46
"07.04.2024 18:15";46
"07.04.2024 18:30";45
"07.04.2024 18:45";45
"07.04.2024 19:00";45
"07.04.2024 19:15";45
"07.04.2024 19:30";45
"07.04.2024 19:45";45
"07.04.2024 20:00";45
"07.04.2024 20:15";45
"07.04.2024 20:30";45
"07.04.2024 20:45";45
"07.04.2024 21:00";45
"07.04.2024 21:15";45
"07.04.2024 21:30";45
"07.04.2024 21:45";45
"07.04.2024 22:00";45
"07.04.2024 22:15";45
"07.04.2024 22:30";45
"07.04.2024 22:45";45
"07.04.2024 23:00";45
"07.04.2024 23:15";45
"07.04.2024 23:30";45
"07.04.2024 23:45";45
"08.04.2024 00:00";45
"08.04.2024 00:15";45
"08.04.2024 00:30";45
"08.04.2024 00:45";45
"08.04.2024 01:00";45
"08.04.2024 01:15";45
"08.04.2024 01:30";45
"08.04.2024 01:45";45
"08.04.2024 02:00";45
"08.04.2024 02:15";45
"08.04.2024 02:30";45
"08.04.2024 02:45";45
"08.04.2024 03:00";45
"08.04.2024 03:15";45
"08.04.2024 03:30";45
"08.04.2024 03:45";45
"08.04.2024 04:00";45
"08.04.2024 04:15";45
"08.04.2024 04:30";45
"08.04.2024 04:45";45
"08.04.2024 05:00";45
"08.04.2024 05:15";45
"08.04.2024 05:30";45
"08.04.2024 05:45";45
"08.04.2024 06:00";45
"08.04.2024 06:15";45
"08.04.2024 06:30";45
"08.04.2024 06:45";45
"08.04.2024 07:00";45
"08.04.2024 07:15";45
"08.04.2024 07:30";45
"08.04.2024 07:45";45
"08.04.2024 08:00";45
"08.04.2024 08:15";45
"08.04.2024 08:30";45
"08.04.2024 08:45";45
"08.04.2024 09:00";45
"08.04.2024 09:15";45
"08.04.2024 09:30";45
"08.04.2024 09:45";45
"08.04.2024 10:00";45
"08.04.2024 10:15";45
"08.04.2024 10:30";45
"08.04.2024 10:45";45
"08.04.2024 11:00";45
"08.04.2024 11:15";45
"08.04.2024 11:30";45
"08.04.2024 11:45";45
"08.04.2024 12:00";45
"08.04.2024 12:15";45
"08.04.2024 12:30";45
"08.04.2024 12:45";45
"08.04.2024 13:00";45
"08.04.2024 13:15";45
"08.04.2024 13:30";45
"08.04.2024 13:45";45
"08.04.2024 14:00";45
"08.04.2024 14:15";45
"08.04.2024 14:30";45
"08.04.2024 14:45";45
"08.04.2024 15:00";45
"08.04.2024 15:15";45
"08.04.2024 15:30";45
"08.04.2024 15:45";45
"08.04.2024 16:00";45
"08.04.2024 16:15";45
"08.04.2024 16:30";45
"08.04.2024 16:45";45
"08.04.2024 17:00";45
"08.04.2024 17:15";45
"08.04.2024 17:30";45
"08.04.2024 17:45";45
"08.04.2024 18:00";45
"08.04.2024 18:15";45
"08.04.2024 18:30";45
"08.04.2024 18:45";45
"08.04.2024 19:00";45
"08.04.2024 19:15";45
"08.04.2024 19:30";44
"08.04.2024 19:45";44
"08.04.2024 20:00";44
"08.04.2024 20:15";44
"08.04.2024 20:30";44
"08.04.2024 20:45";44
"08.04.2024 21:00";44
"08.04.2024 21:15";44
"08.04.2024 21:30";44
"08.04.2024 21:45";44
"08.04.2024 22:00";44
"08.04.2024 22:15";44
"08.04.2024 22:30";44
"08.04.2024 22:45";44
"08.04.2024 23:00";44
"08.04.2024 23:15";44
"08.04.2024 23:30";44
"08.04.2024 23:45";44
"09.04.2024 00:00";44
"09.04.2024 00:15";44
"09.04.2024 00:30";44
"09.04.2024 00:45";44
"09.04.2024 01:00";44
"09.04.2024 01:15";44
"09.04.2024 01:30";44
"09.04.2024 01:45";44
"09.04.2024 02:00";44
"09.04.2024 02:15";44
"09.04.2024 02:30";44
"09.04.2024 02:45";44
"09.04.2024 03:00";44
"09.04.2024 03:15";44
"09.04.2024 03:30";44
"09.04.2024 03:45";44
"09.04.2024 04:00";44
"09.04.2024 04:15";44
"09.04.2024 04:30";44
"09.04.2024 04:45";44
"09.04.2024 05:00";44
"09.04.2024 05:15";44
"09.04.2024 05:30";44
"09.04.2024 05:45";44
"09.04.2024 06:00";44
"09.04.2024 06:15";44
"09.04.2024 06:30";44
"09.04.2024 06:45";44
"09.04.2024 07:00";44
"09.04.2024 07:15";44
"09.04.2024 07:30";44
"09.04.2024 07:45";44
"09.04.2024 08:00";43
"09.04.2024 08:15";43
"09.04.2024 08:30";43
"09.04.2024 08:45";43
"09.04.2024 09:00";43
"09.04.2024 09:15";43
"09.04.2024 09:30";43
"09.04.2024 09:45";43
"09.04.2024 10:00";43
"09.04.2024 10:15";43
"09.04.2024 10:30";43
"09.04.2024 10:45";43
"09.04.2024 11:00";43
"09.04.2024 11:15";43
"09.04.2024 11:30";43
"09.04.2024 11:45";43
"09.04.2024 12:00";43
"09.04.2024 12:15";43
"09.04.2024 12:30";43
"09.04.2024 12:45";43
"09.04.2024 13:00";43
"09.04.2024 13:15";43
"09.04.2024 13:30";43
"09.04.2024 13:45";43
"09.04.2024 14:00";43
"09.04.2024 14:15";43
"09.04.2024 14:30";43
"09.04.2024 14:45";43
"09.04.2024 15:00";43
"09.04.2024 15:15";43
"09.04.2024 15:30";43
"09.04.2024 15:45";43
"09.04.2024 16:00";43
"09.04.2024 16:15";43
"09.04.2024 16:30";43
"09.04.2024 16:45";43
"09.04.2024 17:00";43
"09.04.2024 17:15";43
"09.04.2024 17:30";43
"09.04.2024 17:45";43
"09.04.2024 18:00";43
"09.04.2024 18:15";43
"09.04.2024 18:30";43
"09.04.2024 18:45";43
"09.04.2024 19:00";43
"09.04.2024 19:15";43
"09.04.2024 19:30";43
"09.04.2024 19:45";43
"09.04.2024 20:00";43
"09.04.2024 20:15";43
"09.04.2024 20:30";42
"09.04.2024 20:45";42
"09.04.2024 21:00";42
"09.04.2024 21:15";42
"09.04.2024 21:30";42
"09.04.2024 21:45";42
"09.04.2024 22:00";42
"09.04.2024 22:15";42
"09.04.2024 22:30";42
"09.04.2024 22:45";42
"09.04.2024 23:00";42
"09.04.2024 23:15";42
"09.04.2024 23:30";42
"09.04.2024 23:45";42
"10.04.2024 00:00";42
"10.04.2024 00:15";42
"10.04.2024 00:30";42
"10.04.2024 00:45";42
"10.04.2024 01:00";42
"10.04.2024 01:15";42
"10.04.2024 01:30";42
"10.04.2024 01:45";42
"10.04.2024 02:00";42
"10.04.2024 02:15";42
"10.04.2024 02:30";42
"10.04.2024 02:45";42
"10.04.2024 03:00";42
"10.04.2024 03:15";42
"10.04.2024 03:30";42
"10.04.2024 03:45";42
"10.04.2024 04:00";42
"10.04.2024 04:15";42
"10.04.2024 04:30";42
"10.04.2024 04:45";42
"10.04.2024 05:00";42
"10.04.2024 05:15";42
"10.04.2024 05:30";42
"10.04.2024 05:45";42
"10.04.2024 06:00";42
"10.04.2024 06:15";42
"10.04.2024 06:30";42
"10.04.2024 06:45";42
"10.04.2024 07:00";42
"10.04.2024 07:15";42
"10.04.2024 07:30";42
"10.04.2024 07:45";41
"10.04.2024 08:00";41
"10.04.2024 08:15";41
"10.04.2024 08:30";41
"10.04.2024 08:45";41
"10.04.2024 09:00";41
"10.04.2024 09:15";41
"10.04.2024 09:30";41
"10.04.2024 09:45";41
"10.04.2024 10:00";41
"10.04.2024 10:15";41
"10.04.2024 10:30";41
"10.04.2024 10:45";41
"10.04.2024 11:00";41
"10.04.2024 11:15";41
"10.04.2024 11:30";41
"10.04.2024 11:45";41
"10.04.2024 12:00";41
"10.04.2024 12:15";41
"10.04.2024 12:30";41
"10.04.2024 12:45";41
"10.04.2024 13:00";41
"10.04.2024 13:15";41
"10.04.2024 13:30";41
"10.04.2024 13:45";41
"10.04.2024 14:00";41
"10.04.2024 14:15";41
"10.04.2024 14:30";41
"10.04.2024 14:45";41
"10.04.2024 15:00";41
"10.04.2024 15:15";41
"10.04.2024 15:30";41
"10.04.2024 15:45";41
"10.04.2024 16:00";41
"10.04.2024 16:15";41
"10.04.2024 16:30";41
"10.04.2024 16:45";41
"10.04.2024 17:00";41
"10.04.2024 17:15";41
"10.04.2024 17:30";41
"10.04.2024 17:45";41
"10.04.2024 18:00";41
"10.04.2024 18:15";41
"10.04.2024 18:30";41
"10.04.2024 18:45";41
"10.04.2024 19:00";41
"10.04.2024 19:15";41
"10.04.2024 19:30";41
"10.04.2024 19:45";41
"10.04.2024 20:00";40
"10.04.2024 20:15";40
"10.04.2024 20:30";40
"10.04.2024 20:45";40
"10.04.2024 21:00";40
"10.04.2024 21:15";40
"10.04.2024 21:30";40
"10.04.2024 21:45";40
"10.04.2024 22:00";40
"10.04.2024 22:15";40
"10.04.2024 22:30";40
"10.04.2024 22:45";40
"10.04.2024 23:00";40
"10.04.2024 23:15";40
"10.04.2024 23:30";40
"10.04.2024 23:45";40
"11.04.2024 00:00";40
"11.04.2024 00:15";40
"11.04.2024 00:30";40
"11.04.2024 00:45";40
"11.04.2024 01:00";40
"11.04.2024 01:15";40
"11.04.2024 01:30";40
"11.04.2024 01:45";40
"11.04.2024 02:00";40
"11.04.2024 02:15";40
"11.04.2024 02:30";40
"11.04.2024 02:45";40
"11.04.2024 03:00";40
"11.04.2024 03:15";40
"11.04.2024 03:30";40
"11.04.2024 03:45";40
"11.04.2024 04:00";40
"11.04.2024 04:15";40
"11.04.2024 04:30";40
"11.04.2024 04:45";40
"11.04.2024 05:00";40
"11.04.2024 05:15";40
"11.04.2024 05:30";40
"11.04.2024 05:45";40
"11.04.2024 06:00";40
"11.04.2024 06:15";40
"11.04.2024 06:30";40
"11.04.2024 06:45";40
"11.04.2024 07:00";40
"11.04.2024 07:15";40
"11.04.2024 07:30";40
"11.04.2024 07:45";40
"11.04.2024 08:00";40
"11.04.2024 08:15";40
"11.04.2024 08:30";40
"11.04.2024 08:45";40
"11.04.2024 09:00";40
"11.04.2024 09:15";40
"11.04.2024 09:30";40
"11.04.2024 09:45";40
"11.04.2024 10:00";40
"11.04.2024 10:15";40
"11.04.2024 10:30";40
"11.04.2024 10:45";40
"11.04.2024 11:00";40
"11.04.2024 11:15";40
"11.04.2024 11:30";40
"11.04.2024 11:45";40
"11.04.2024 12:00";40
"11.04.2024 12:15";40
"11.04.2024 12:30";40
"11.04.2024 12:45";40
"11.04.2024 13:00";40
"11.04.2024 13:15";40
"11.04.2024 13:30";40
"11.04.2024 13:45";40
"11.04.2024 14:00";40
"11.04.2024 14:15";40
"11.04.2024 14:30";40
"11.04.2024 14:45";40
"11.04.2024 15:00";40
"11.04.2024 15:15";40
"11.04.2024 15:30";40
"11.04.2024 15:45";40
"11.04.2024 16:00";40
"11.04.2024 16:15";40
"11.04.2024 16:30";40
"11.04.2024 16:45";40
"11.04.2024 17:00";40
"11.04.2024 17:15";40
"11.04.2024 17:30";40
"11.04.2024 17:45";40
"11.04.2024 18:00";40
"11.04.2024 18:15";40
"11.04.2024 18:30";40
"11.04.2024 18:45";40
"11.04.2024 19:00";40
"11.04.2024 19:15";40
"11.04.2024 19:30";40
"11.04.2024 19:45";40
"11.04.2024 20:00";40
"11.04.2024 20:15";40
"11.04.2024 20:30";40
"11.04.2024 20:45";40
"11.04.2024 21:00";40
"11.04.2024 21:15";40
"11.04.2024 21:30";40
"11.04.2024 21:45";40
"11.04.2024 22:00";40
"11.04.2024 22:15";40
"11.04.2024 22:30";40
"11.04.2024 22:45";40
"11.04.2024 23:00";40
"11.04.2024 23:15";40
"11.04.2024 23:30";40
"11.04.2024 23:45";40
"12.04.2024 00:00";40
"12.04.2024 00:15";40
"12.04.2024 00:30";40
"12.04.2024 00:45";40
"12.04.2024 01:00";40
"12.04.2024 01:15";40
"12.04.2024 01:30";40
"12.04.2024 01:45";40
"12.04.2024 02:00";40
"12.04.2024 02:15";40
"12.04.2024 02:30";40
"12.04.2024 02:45";40
"12.04.2024 03:00";40
"12.04.2024 03:15";40
"12.04.2024 03:30";39
"12.04.2024 03:45";39
"12.04.2024 04:00";39
"12.04.2024 04:15";39
"12.04.2024 04:30";39
"12.04.2024 04:45";39
"12.04.2024 05:00";39
"12.04.2024 05:15";39
"12.04.2024 05:30";39
"12.04.2024 05:45";39
"12.04.2024 06:00";39
"12.04.2024 06:15";39
"12.04.2024 06:30";39
"12.04.2024 06:45";39
"12.04.2024 07:00";39
"12.04.2024 07:15";39
"12.04.2024 07:30";39
"12.04.2024 07:45";39
"12.04.2024 08:00";39
"12.04.2024 08:15";39
"12.04.2024 08:30";39
"12.04.2024 08:45";39
"12.04.2024 09:00";39
"12.04.2024 09:15";39
"12.04.2024 09:30";39
"12.04.2024 09:45";39
"12.04.2024 10:00";39
"12.04.2024 10:15";39
"12.04.2024 10:30";39
"12.04.2024 10:45";39
"12.04.2024 11:00";39
"12.04.2024 11:15";39
"12.04.2024 11:30";39
"12.04.2024 11:45";39
"12.04.2024 12:00";39
"12.04.2024 12:15";39
"12.04.2024 12:30";39
"12.04.2024 12:45";39
"12.04.2024 13:00";39
"12.04.2024 13:15";39
"12.04.2024 13:30";39
"12.04.2024 13:45";39
"12.04.2024 14:00";39
"12.04.2024 14:15";39
"12.04.2024 14:30";39
"12.04.2024 14:45";39
"12.04.2024 15:00";39
"12.04.2024 15:15";39
"12.04.2024 15:30";39
"12.04.2024 15:45";39
"12.04.2024 16:00";39
"12.04.2024 16:15";39
"12.04.2024 16:30";39
"12.04.2024 16:45";39
"12.04.2024 17:00";39
"12.04.2024 17:15";39
"12.04.2024 17:30";39
"12.04.2024 17:45";39
"12.04.2024 18:00";39
"12.04.2024 18:15";39
"12.04.2024 18:30";39
"12.04.2024 18:45";39
"12.04.2024 19:00";39
"12.04.2024 19:15";39
"12.04.2024 19:30";39
"12.04.2024 19:45";39
"12.04.2024 20:00";39
"12.04.2024 20:15";39
"12.04.2024 20:30";39
"12.04.2024 20:45";39
"12.04.2024 21:00";39
"12.04.2024 21:15";39
"12.04.2024 21:30";39
"12.04.2024 21:45";39
"12.04.2024 22:00";39
"12.04.2024 22:15";39
"12.04.2024 22:30";39
"12.04.2024 22:45";39
"12.04.2024 23:00";39
"12.04.2024 23:15";39
"12.04.2024 23:30";39
"12.04.2024 23:45";39
"13.04.2024 00:00";39
"13.04.2024 00:15";39
"13.04.2024 00:30";39
"13.04.2024 00:45";39
"13.04.2024 01:00";39
"13.04.2024 01:15";39
"13.04.2024 01:30";39
"13.04.2024 01:45";39
"13.04.2024 02:00";39
"13.04.2024 02:15";39
"13.04.2024 02:30";39
"13.04.2024 02:45";39
"13.04.2024 03:00";39
"13.04.2024 03:15";39
"13.04.2024 03:30";39
"13.04.2024 03:45";39
"13.04.2024 04:00";39
"13.04.2024 04:15";39
"13.04.2024 04:30";39
"13.04.2024 04:45";39
"13.04.2024 05:00";39
"13.04.2024 05:15";39
"13.04.2024 05:30";39
"13.04.2024 05:45";39
"13.04.2024 06:00";39
"13.04.2024 06:15";39
"13.04.2024 06:30";39
"13.04.2024 06:45";39
"13.04.2024 07:00";39
"13.04.2024 07:15";39
"13.04.2024 07:30";39
"13.04.2024 07:45";39
"13.04.2024 08:00";39
"13.04.2024 08:15";39
"13.04.2024 08:30";39
"13.04.2024 08:45";39
"13.04.2024 09:00";39
"13.04.2024 09:15";39
"13.04.2024 09:30";39
"13.04.2024 09:45";39
"13.04.2024 10:00";39
"13.04.2024 10:15";39
"13.04.2024 10:30";39
"13.04.2024 10:45";39
"13.04.2024 11:00";39
"13.04.2024 11:15";39
"13.04.2024 11:30";39
"13.04.2024 11:45";39
"13.04.2024 12:00";39
"13.04.2024 12:15";39
"13.04.2024 12:30";39
"13.04.2024 12:45";39
"13.04.2024 13:00";39
"13.04.2024 13:15";39
"13.04.2024 13:30";39
"13.04.2024 13:45";39
"13.04.2024 14:00";39
"13.04.2024 14:15";39
"13.04.2024 14:30";39
"13.04.2024 14:45";39
"13.04.2024 15:00";39
"13.04.2024 15:15";39
"13.04.2024 15:30";39
"13.04.2024 15:45";39
"13.04.2024 16:00";39
"13.04.2024 16:15";39
"13.04.2024 16:30";39
"13.04.2024 16:45";39
"13.04.2024 17:00";39
"13.04.2024 17:15";39
"13.04.2024 17:30";39
"13.04.2024 17:45";39
"13.04.2024 18:00";39
"13.04.2024 18:15";39
"13.04.2024 18:30";39
"13.04.2024 18:45";39
"13.04.2024 19:00";39
"13.04.2024 19:15";39
"13.04.2024 19:30";39
"13.04.2024 19:45";39
"13.04.2024 20:00";39
"13.04.2024 20:15";39
"13.04.2024 20:30";39
"13.04.2024 20:45";39
"13.04.2024 21:00";39
"13.04.2024 21:15";39
"13.04.2024 21:30";39
"13.04.2024 21:45";39
"13.04.2024 22:00";39
"13.04.2024 22:15";39
"13.04.2024 22:30";39
"13.04.2024 22:45";39
"13.04.2024 23:00";39
"13.04.2024 23:15";39
"13.04.2024 23:30";39
"13.04.2024 23:45";39
"14.04.2024 00:00";39
"14.04.2024 00:15";39
"14.04.2024 00:30";39
"14.04.2024 00:45";39
"14.04.2024 01:00";39
"14.04.2024 01:15";39
"14.04.2024 01:30";39
"14.04.2024 01:45";39
"14.04.2024 02:00";39
"14.04.2024 02:15";39
"14.04.2024 02:30";39
"14.04.2024 02:45";39
"14.04.2024 03:00";39
"14.04.2024 03:15";39
"14.04.2024 03:30";39
"14.04.2024 03:45";39
"14.04.2024 04:00";39
"14.04.2024 04:15";39
"14.04.2024 04:30";39
"14.04.2024 04:45";39
"14.04.2024 05:00";39
"14.04.2024 05:15";39
"14.04.2024 05:30";39
"14.04.2024 05:45";39
"14.04.2024 06:00";39
"14.04.2024 06:15";39
"14.04.2024 06:30";39
"14.04.2024 06:45";39
"14.04.2024 07:00";39
"14.04.2024 07:15";39
"14.04.2024 07:30";39
"14.04.2024 07:45";39
"14.04.2024 08:00";39
"14.04.2024 08:15";39
"14.04.2024 08:30";39
"14.04.2024 08:45";39
"14.04.2024 09:00";39
"14.04.2024 09:15";39
"14.04.2024 09:30";39
"14.04.2024 09:45";39
"14.04.2024 10:00";39
"14.04.2024 10:15";39
"14.04.2024 10:30";39
"14.04.2024 10:45";39
"14.04.2024 11:00";39
"14.04.2024 11:15";39
"14.04.2024 11:30";39
"14.04.2024 11:45";39
"14.04.2024 12:00";39
"14.04.2024 12:15";39
"14.04.2024 12:30";39
"14.04.2024 12:45";39
"14.04.2024 13:00";39
"14.04.2024 13:15";39
"14.04.2024 13:30";39
"14.04.2024 13:45";39
"14.04.2024 14:00";39
"14.04.2024 14:15";39
"14.04.2024 14:30";39
"14.04.2024 14:45";39
"14.04.2024 15:00";39
"14.04.2024 15:15";39
"14.04.2024 15:30";39
"14.04.2024 15:45";39
"14.04.2024 16:00";39
"14.04.2024 16:15";39
"14.04.2024 16:30";39
"14.04.2024 16:45";39
"14.04.2024 17:00";39
"14.04.2024 17:15";39
"14.04.2024 17:30";39
"14.04.2024 17:45";39
"14.04.2024 18:00";38
"14.04.2024 18:15";38
"14.04.2024 18:30";38
"14.04.2024 18:45";38
"14.04.2024 19:00";38
"14.04.2024 19:15";38
"14.04.2024 19:30";38
"14.04.2024 19:45";38
"14.04.2024 20:00";38
"14.04.2024 20:15";38
"14.04.2024 20:30";38
"14.04.2024 20:45";38
"14.04.2024 21:00";38
"14.04.2024 21:15";38
"14.04.2024 21:30";38
"14.04.2024 21:45";38
"14.04.2024 22:00";38
"14.04.2024 22:15";38
"14.04.2024 22:30";38
"14.04.2024 22:45";38
"14.04.2024 23:00";38
"14.04.2024 23:15";38
"14.04.2024 23:30";38
"14.04.2024 23:45";38
"15.04.2024 00:00";38
"15.04.2024 00:15";38
"15.04.2024 00:30";38
"15.04.2024 00:45";38
"15.04.2024 01:00";38
"15.04.2024 01:15";38
"15.04.2024 01:30";38
"15.04.2024 01:45";38
"15.04.2024 02:00";38
"15.04.2024 02:15";38
"15.04.2024 02:30";38
"15.04.2024 02:45";38
"15.04.2024 03:00";38
"15.04.2024 03:15";38
"15.04.2024 03:30";38
"15.04.2024 03:45";38
"15.04.2024 04:00";38
"15.04.2024 04:15";38
"15.04.2024 04:30";38
"15.04.2024 04:45";38
"15.04.2024 05:00";38
"15.04.2024 05:15";38
"15.04.2024 05:30";38
"15.04.2024 05:45";38
"15.04.2024 06:00";38
"15.04.2024 06:15";38
"15.04.2024 06:30";38
"15.04.2024 06:45";38
"15.04.2024 07:00";38